TimeCST,TemperatureF,Dew PointF,Humidity,Sea Level PressureIn,VisibilityMPH,Wind Direction,Wind SpeedMPH,Gust SpeedMPH,PrecipitationIn,Events,Conditions,WindDirDegrees,DateUTC
12:56 AM,66.9,61.0,81,30.08,10.0,South,10.4,-,N/A,,Overcast,180,2013-01-28 06:56:00
1:56 AM,66.9,62.1,84,30.09,10.0,South,11.5,-,0.00,,Overcast,170,2013-01-28 07:56:00
2:15 AM,66.2,62.6,88,30.10,10.0,South,15.0,-,N/A,,Overcast,180,2013-01-28 08:15:00
2:56 AM,66.9,62.1,84,30.09,10.0,South,10.4,-,N/A,,Overcast,170,2013-01-28 08:56:00
3:56 AM,66.2,62.6,88,30.10,10.0,South,9.2,-,N/A,,Overcast,170,2013-01-28 09:56:00
4:17 AM,66.2,62.6,88,30.10,10.0,South,5.8,-,N/A,,Overcast,170,2013-01-28 10:17:00
4:56 AM,66.0,62.1,87,30.09,10.0,South,8.1,-,N/A,,Overcast,180,2013-01-28 10:56:00
5:35 AM,66.2,62.6,88,30.09,10.0,South,8.1,-,N/A,,Overcast,170,2013-01-28 11:35:00
5:56 AM,66.0,62.1,87,30.09,10.0,SSE,9.2,-,N/A,,Overcast,160,2013-01-28 11:56:00
6:56 AM,66.0,62.1,87,30.10,10.0,SSE,10.4,-,N/A,,Overcast,160,2013-01-28 12:56:00
7:56 AM,66.9,63.0,87,30.11,10.0,SSE,11.5,-,N/A,,Overcast,160,2013-01-28 13:56:00
8:32 AM,68.0,62.6,83,30.11,10.0,South,12.7,-,N/A,,Overcast,170,2013-01-28 14:32:00
8:45 AM,68.0,62.6,83,30.11,10.0,South,11.5,-,N/A,,Mostly Cloudy,170,2013-01-28 14:45:00
8:56 AM,68.0,63.0,84,30.11,10.0,South,12.7,-,N/A,,Mostly Cloudy,170,2013-01-28 14:56:00
9:29 AM,69.8,62.6,78,30.12,10.0,South,12.7,-,N/A,,Overcast,180,2013-01-28 15:29:00
9:56 AM,70.0,64.0,81,30.12,10.0,South,11.5,-,N/A,,Overcast,180,2013-01-28 15:56:00
10:56 AM,73.4,62.6,69,30.11,10.0,South,21.9,27.6,N/A,,Overcast,180,2013-01-28 16:56:00
11:56 AM,73.9,62.1,66,30.08,10.0,South,16.1,24.2,N/A,,Mostly Cloudy,180,2013-01-28 17:56:00
12:56 PM,77.0,61.0,58,30.04,10.0,South,18.4,24.2,N/A,,Scattered Clouds,170,2013-01-28 18:56:00
1:56 PM,79.0,62.1,56,30.01,10.0,SSE,18.4,26.5,N/A,,Scattered Clouds,160,2013-01-28 19:56:00
2:56 PM,75.9,62.1,62,29.99,10.0,SSE,15.0,21.9,N/A,,Mostly Cloudy,160,2013-01-28 20:56:00
3:56 PM,75.0,62.1,64,29.99,10.0,SSE,13.8,-,N/A,,Mostly Cloudy,150,2013-01-28 21:56:00
4:56 PM,75.0,61.0,62,29.98,10.0,SSE,17.3,23.0,N/A,,Partly Cloudy,160,2013-01-28 22:56:00
5:56 PM,72.0,61.0,68,29.97,10.0,SSE,12.7,-,N/A,,Partly Cloudy,150,2013-01-28 23:56:00
6:56 PM,71.1,62.1,73,29.97,10.0,SSE,15.0,-,N/A,,Clear,160,2013-01-29 00:56:00
7:56 PM,70.0,62.1,76,29.98,10.0,South,16.1,-,N/A,,Clear,170,2013-01-29 01:56:00
8:56 PM,69.1,62.1,78,29.99,10.0,South,13.8,24.2,N/A,,Partly Cloudy,170,2013-01-29 02:56:00
9:41 PM,69.8,62.6,78,29.99,10.0,South,16.1,-,N/A,,Mostly Cloudy,170,2013-01-29 03:41:00
9:56 PM,69.1,62.1,78,29.99,10.0,South,15.0,-,N/A,,Mostly Cloudy,170,2013-01-29 03:56:00
10:17 PM,69.8,62.6,78,30.00,10.0,South,12.7,-,N/A,,Overcast,170,2013-01-29 04:17:00
10:56 PM,69.1,63.0,81,29.99,10.0,South,12.7,-,N/A,,Overcast,170,2013-01-29 04:56:00
11:56 PM,69.1,63.0,81,29.97,10.0,South,12.7,21.9,N/A,,Overcast,170,2013-01-29 05:56:00